Flag for Burkina Faso Weather past 2 weeks in Koudougou, Burkina Faso

Now
90 °F

Passing clouds.


Feels Like: 96 °F
Forecast: 76 / 95 °F
Wind: 12 mph from West

Location: Ouagadougou Airport

Current Time: Jun 30, 2015 at 12:50:44 PM

Latest Report: Jun 30, 2015 at 12:00 PM


Visibility: N/A

Pressure: 30.01 "Hg

Humidity: 55%

Dew point: 72 °F

Location of KoudougouLocation

Historic Weather in Koudougou — Graph

°F

Koudougou temperature yesterday

Maximum temperature yesterday: 93 °F (at 3:00 PM)
Minimum temperature yesterday: 77 °F (at 2:00 AM)
Average temperature yesterday: 85 °F

Past Weeks' High & Low Weather Summary

 TemperatureHumidityPressure
High100 °F (Jun 15, 4:00 PM)100% (Jun 16, 7:00 AM)30.21 "Hg (Jun 16, 7:00 AM)
Low70 °F (Jun 24, 9:00 AM)35% (Jun 15, 4:00 PM)29.80 "Hg (Jun 17, 3:00 PM)
Average86 °F65%29.95 "Hg
* Reported Jun 15 12:00 Noon — Jun 30 12:00 Noon, Koudougou, Weather by CustomWeather, © 2015

Note: Actual official high and low records may vary slightly from our data, if they occured in-between our weather recording intervals... More about our weather records

Advertising

Koudougou weather history for previous 24 hours

 ConditionsComfort  
Time TempWeatherWind HumidityBarometerVisibility
12:00 PM
Tue, Jun 30
90 °FPassing clouds.12 mph55%30.01 "HgN/A
11:00 AM88 °FClear.12 mph59%30.01 "Hg5 mi
10:00 AM86 °FPartly sunny.7 mph62%30.04 "Hg5 mi
9:00 AM82 °FPartly sunny.5 mph70%30.04 "Hg5 mi
8:00 AM81 °FPartly sunny.3 mph74%30.04 "Hg5 mi
7:00 AM79 °FThunderstorms. Partly sunny.5 mph79%30.01 "Hg5 mi
6:00 AM77 °FThunderstorms. Partly sunny.2 mph83%29.98 "HgN/A
5:00 AM79 °FThunderstorms. Partly cloudy.1 mph74%29.98 "HgN/A
4:00 AM79 °FThunderstorms. Partly cloudy.6 mph74%29.98 "HgN/A
3:00 AM79 °FThunderstorms. Partly cloudy.3 mph70%29.95 "HgN/A
2:00 AM81 °FThunderstorms. Partly cloudy.8 mph66%29.98 "HgN/A
1:00 AM81 °FThunderstorms. Partly cloudy.9 mph66%29.98 "HgN/A
12:00 AM82 °FThunderstorms. Partly cloudy.13 mph70%30.01 "HgN/A
11:00 PM
Mon, Jun 29
84 °FThunderstorms. Passing clouds.8 mph66%29.98 "HgN/A
10:00 PM86 °FThunderstorms. Passing clouds.3 mph70%29.98 "HgN/A
9:00 PM88 °FThunderstorms. Passing clouds.3 mph66%29.95 "HgN/A
8:00 PM88 °FThunderstorms. Passing clouds.3 mph62%29.95 "HgN/A
7:00 PM90 °FPassing clouds.3 mph59%29.92 "HgN/A
6:00 PM91 °FPartly sunny.2 mph56%29.89 "HgN/A
5:00 PM93 °FPartly sunny.3 mph49%29.92 "HgN/A
4:00 PM93 °FScattered clouds.5 mph53%29.92 "HgN/A
3:00 PM93 °FScattered clouds.8 mph53%29.92 "HgN/A
2:00 PM91 °FScattered clouds.8 mph59%29.95 "HgN/A
1:00 PM91 °FPartly sunny.10 mph59%29.98 "HgN/A
Weather by CustomWeather, © 2015

See weather overviewHow to use our weather pages